Regional Weather Roundup
Issued by NWS State College, PA

Home | Current Version | Previous Version | Text Only | Print | Product List | Glossary Off
Versions: 1 2 3 4 5 6 7 8 9 10 11 12 13 14 15 16 17 18 19 20 21 22 23 24 25 26 27 28 29 30 31 32 33 34 35 36 37 38 39 40 41 42 43 44 45 46 47 48 49 50

000
ASUS41 KCTP 160610
RWRCTP

REGIONAL WEATHER ROUNDUP
NATIONAL WEATHER SERVICE STATE COLLEGE PA
100 AM EST SAT DEC 16 2017

Note: "fair" indicates few or no clouds below 12,000 feet with no
significant weather and/or obstructions to visibility.

* = STATION THAT DOES NOT REPORT PRECIPITATION /E.G. RAIN...SNOW...ETC/
    THUNDER OR FOG.

PAZ002>004-007>009-013>016-020>023-029>032-160700-
WESTERN PENNSYLVANIA

CITY           SKY/WX    TMP DP  RH WIND       PRES   REMARKS
ERIE           CLOUDY    26  19  74 SW12      29.90S
MEADVILLE      FLURRIES  23  16  74 SW10      29.90F WCI  12
FRANKLIN*      FLURRIES  23  15  71 SW14G22   29.91S WCI  11
NEW CASTLE     FLURRIES  26  18  71 SW8       29.97F
BEAVER COUNTY  NOT AVBL
BUTLER*        FLURRIES  26  17  68 SW10      29.97S
PITTSBURGH INT CLOUDY    29  18  63 SW14      29.98S
PITTSBURGH     CLOUDY    26  15  63 SW13      29.98F WCI  15
INDIANA*       CLOUDY    27  16  63 W12G18    29.98F
LATROBE        CLOUDY    27  18  69 SW9       30.00F
WASHINGTON CO* CLOUDY    28  17  63 SW8G16    30.04S
$$

PAZ004>006-010>012-017>019-024>028-033>037-041-042-045-046-049>053-160700-
CENTRAL PENNSYLVANIA

CITY           SKY/WX    TMP DP  RH WIND       PRES   REMARKS
BRADFORD       LGT SNOW  20  15  81 W7G22     29.80S WCI  11
DUBOIS         CLOUDY    21  13  71 W20       29.87S HAZE    WCI   6
CLEARFIELD     CLOUDY    24  14  65 SW12      29.90S WCI  13
JOHNSTOWN      CLOUDY    22  14  71 W15G29    29.88S WCI   9
ALTOONA        CLOUDY    27  15  61 W17G37    29.95R WCI  14
STATE COLLEGE  FLURRIES  24  18  75 W16G26    29.92R WCI  11
WILLIAMSPORT   PTCLDY    15  11  83 CALM      29.91S
SELINSGROVE    CLOUDY    19  15  84 S5        29.94S WCI  12
FT INDIANTOWN  PTCLDY    12  11  98 CALM      29.94F
CAPITAL CITY   CLOUDY    24  18  77 S3        29.97S
HARRISBURG     MOCLDY    21  19  92 E3        29.96F FOG
YORK           CLOUDY    26  18  71 SW3       29.97R
$$

PAZ038>040-043-044-047-048-054-055-060>062-067>071-160700-
EASTERN PENNSYLVANIA

CITY           SKY/WX    TMP DP  RH WIND       PRES   REMARKS
SCRANTON       PTCLDY    18  15  88 SW3       29.87R FOG
MOUNT POCONO   CLEAR     16  14  92 W18G25    29.78R WCI   0
ALLENTOWN      CLEAR     16  12  84 SW6       29.93S FOG     WCI   7
QUAKERTOWN*    CLEAR     18  18 100 W5        29.94R WCI  11
READING        PTCLDY    20  18  92 CALM      29.95S
LANCASTER      MOCLDY    18  17  96 SE5       29.97F FOG     WCI  11
COATESVILLE    MOCLDY    18  18 100 NW7       29.98R WCI   8
POTTSTOWN      CLEAR     15  12  88 CALM      29.98R FOG
BLUE BELL      PTCLDY    18  16  93 SW3       29.98R
DOYLESTOWN     CLEAR     19  16  88 SW7       29.93R WCI  10
WILLOW GROVE   NOT AVBL
NORTH PHILA    CLEAR     23  18  81 W6        29.98R
PHILADELPHIA   CLEAR     21  17  84 W9        30.00R WCI  11
$$




USA.gov is the U.S. government's official web portal to all federal, state and local government web resources and services.